When you browse on this site, cookies collect data to enhance your experience and personalize the content and advertising you see.
Visit our Privacy Policy to learn more. By continuing to use the site, you agree to this use of cookies and data.
  • In Deutschland
  • Länderverzeichnis
  • Für 7 Tage
  • Wassertemperatur
  • Wetterkarte
  • Widgets
  • user-avatar
    Anmelden

    Stündliche Wetter Brodovo

    Heute, 27 Februar, Donnerstag

    Zeit Temperatur Niederschläge Wind Luftdruck Luftfeuchtigkeit
    00:00 -8°C° 0.2 mm 3 m/S 726 mmHg 94%
    01:00 -7°C° 0.2 mm 3 m/S 726 mmHg 94%
    02:00 -8°C° 0 mm 4 m/S 727 mmHg 91%
    03:00 -8°C° 0 mm 4 m/S 728 mmHg 89%
    04:00 -7°C° 0 mm 4 m/S 729 mmHg 88%
    05:00 -8°C° 0 mm 4 m/S 729 mmHg 88%
    06:00 -9°C° 0 mm 4 m/S 730 mmHg 89%
    07:00 -11°C° 0 mm 5 m/S 731 mmHg 89%
    08:00 -10°C° 0 mm 5 m/S 731 mmHg 87%
    09:00 -10°C° 0 mm 5 m/S 732 mmHg 86%
    10:00 -8°C° 0 mm 5 m/S 732 mmHg 84%
    11:00 -7°C° 0 mm 4 m/S 732 mmHg 82%
    12:00 -5°C° 0 mm 4 m/S 733 mmHg 80%
    13:00 -4°C° 0 mm 3 m/S 733 mmHg 77%
    14:00 -4°C° 0 mm 3 m/S 734 mmHg 81%
    15:00 -4°C° 0 mm 4 m/S 734 mmHg 85%
    16:00 -3°C° 0 mm 4 m/S 734 mmHg 88%
    17:00 -4°C° 0 mm 3 m/S 735 mmHg 89%
    18:00 -4°C° 0 mm 3 m/S 736 mmHg 90%
    19:00 -4°C° 0 mm 2 m/S 736 mmHg 91%
    20:00 -4°C° 0 mm 2 m/S 736 mmHg 92%
    21:00 -4°C° 0 mm 2 m/S 737 mmHg 93%
    22:00 -2°C° 0 mm 1 m/S 737 mmHg 95%
    23:00 -5°C° 0 mm 2 m/S 737 mmHg 95%

    Morgen, 28 Februar, Freitag

    Zeit Temperatur Niederschläge Wind Luftdruck Luftfeuchtigkeit
    00:00 -5°C° 0 mm 2 m/S 738 mmHg 95%
    01:00 -6°C° 0 mm 2 m/S 738 mmHg 95%
    02:00 -5°C° 0 mm 2 m/S 738 mmHg 96%
    03:00 -3°C° 0 mm 1 m/S 738 mmHg 96%
    04:00 -3°C° 0 mm 1 m/S 739 mmHg 97%
    05:00 -4°C° 0.1 mm 2 m/S 739 mmHg 97%
    06:00 -3°C° 0.1 mm 2 m/S 739 mmHg 96%
    07:00 -1°C° 0.1 mm 2 m/S 739 mmHg 96%
    08:00 -1°C° 0.1 mm 2 m/S 739 mmHg 96%
    09:00 -1°C° 0.1 mm 2 m/S 739 mmHg 96%
    10:00 -1°C° 0.1 mm 2 m/S 739 mmHg 95%
    11:00 -1°C° 0.2 mm 3 m/S 739 mmHg 97%
    12:00 -1°C° 0.2 mm 3 m/S 739 mmHg 98%
    13:00 0°C° 0.2 mm 3 m/S 739 mmHg 99%
    14:00 0°C° 0.3 mm 3 m/S 739 mmHg 99%
    15:00 0°C° 0.3 mm 3 m/S 739 mmHg 99%
    16:00 0°C° 0.3 mm 3 m/S 739 mmHg 99%
    17:00 0°C° 0 mm 3 m/S 739 mmHg 97%
    18:00 -1°C° 0 mm 2 m/S 740 mmHg 96%
    19:00 -1°C° 0 mm 2 m/S 740 mmHg 95%
    20:00 -2°C° 0 mm 2 m/S 740 mmHg 95%
    21:00 -2°C° 0 mm 2 m/S 740 mmHg 94%
    22:00 -3°C° 0 mm 2 m/S 740 mmHg 94%
    23:00 -2°C° 0 mm 2 m/S 740 mmHg 94%

    übermorgen, 29 Februar, Samstag

    Zeit Temperatur Niederschläge Wind Luftdruck Luftfeuchtigkeit
    00:00 -2°C° 0 mm 3 m/S 740 mmHg 94%
    01:00 -2°C° 0 mm 3 m/S 740 mmHg 93%
    02:00 -1°C° 0.1 mm 3 m/S 740 mmHg 92%
    03:00 -1°C° 0.1 mm 3 m/S 740 mmHg 90%
    04:00 -1°C° 0.1 mm 3 m/S 739 mmHg 88%
    05:00 -1°C° 0 mm 3 m/S 739 mmHg 87%
    06:00 -1°C° 0 mm 3 m/S 739 mmHg 87%
    07:00 -1°C° 0 mm 3 m/S 738 mmHg 86%
    08:00 -2°C° 0 mm 4 m/S 738 mmHg 87%
    09:00 -2°C° 0 mm 4 m/S 737 mmHg 88%
    10:00 -4°C° 0 mm 5 m/S 737 mmHg 89%
    11:00 -2°C° 0 mm 5 m/S 736 mmHg 86%
    12:00 -1°C° 0 mm 5 m/S 736 mmHg 83%
    13:00 0°C° 0 mm 5 m/S 735 mmHg 80%
    14:00 0°C° 0 mm 5 m/S 735 mmHg 80%
    15:00 0°C° 0 mm 5 m/S 735 mmHg 79%
    16:00 -1°C° 0 mm 5 m/S 735 mmHg 78%
    17:00 -1°C° 0 mm 4 m/S 735 mmHg 81%
    18:00 -1°C° 0 mm 4 m/S 736 mmHg 84%
    19:00 -1°C° 0 mm 4 m/S 736 mmHg 86%
    20:00 -2°C° 0 mm 4 m/S 736 mmHg 87%
    21:00 -2°C° 0 mm 4 m/S 736 mmHg 87%
    22:00 -3°C° 0 mm 4 m/S 737 mmHg 88%
    23:00 -2°C° 0 mm 3 m/S 737 mmHg 89%

    1 März, Sonntag

    Zeit Temperatur Niederschläge Wind Luftdruck Luftfeuchtigkeit
    00:00 -4°C° 0 mm 3 m/S 738 mmHg 90%
    01:00 -4°C° 0 mm 3 m/S 738 mmHg 91%
    02:00 -5°C° 0 mm 3 m/S 738 mmHg 91%
    03:00 -6°C° 0 mm 3 m/S 739 mmHg 92%
    04:00 -6°C° 0 mm 3 m/S 739 mmHg 92%
    05:00 -7°C° 0 mm 3 m/S 739 mmHg 92%
    06:00 -6°C° 0 mm 2 m/S 740 mmHg 93%
    07:00 -7°C° 0 mm 2 m/S 740 mmHg 93%
    08:00 -6°C° 0 mm 3 m/S 740 mmHg 91%
    09:00 -5°C° 0 mm 3 m/S 741 mmHg 89%
    10:00 -4°C° 0 mm 3 m/S 741 mmHg 86%
    11:00 -4°C° 0 mm 3 m/S 741 mmHg 85%
    12:00 -2°C° 0 mm 3 m/S 741 mmHg 83%
    13:00 -2°C° 0 mm 3 m/S 742 mmHg 82%
    14:00 -2°C° 0 mm 3 m/S 742 mmHg 82%
    15:00 -2°C° 0 mm 3 m/S 742 mmHg 82%
    16:00 -2°C° 0 mm 3 m/S 742 mmHg 82%
    17:00 -4°C° 0 mm 3 m/S 743 mmHg 84%
    18:00 -4°C° 0 mm 2 m/S 743 mmHg 86%
    19:00 -6°C° 0 mm 2 m/S 744 mmHg 89%
    20:00 -6°C° 0 mm 2 m/S 744 mmHg 89%
    21:00 -7°C° 0 mm 2 m/S 744 mmHg 90%
    22:00 -8°C° 0 mm 2 m/S 745 mmHg 91%
    23:00 -8°C° 0 mm 2 m/S 745 mmHg 92%

    2 März, Montag

    Zeit Temperatur Niederschläge Wind Luftdruck Luftfeuchtigkeit
    00:00 -9°C° 0 mm 2 m/S 745 mmHg 93%
    01:00 -9°C° 0 mm 2 m/S 746 mmHg 94%
    02:00 -10°C° 0 mm 2 m/S 746 mmHg 93%
    03:00 -10°C° 0 mm 2 m/S 746 mmHg 93%
    04:00 -12°C° 0 mm 2 m/S 747 mmHg 92%
    05:00 -12°C° 0 mm 2 m/S 747 mmHg 91%
    06:00 -12°C° 0 mm 2 m/S 747 mmHg 90%
    07:00 -13°C° 0 mm 2 m/S 747 mmHg 89%
    08:00 -9°C° 0 mm 2 m/S 748 mmHg 85%
    09:00 -7°C° 0 mm 2 m/S 748 mmHg 80%
    10:00 -3°C° 0 mm 1 m/S 748 mmHg 75%
    11:00 -2°C° 0 mm 1 m/S 748 mmHg 75%
    12:00 -1°C° 0 mm 1 m/S 748 mmHg 75%
    13:00 +1°C° 0 mm 1 m/S 748 mmHg 75%
    14:00 +1°C° 0 mm 1 m/S 748 mmHg 77%
    15:00 +1°C° 0 mm 1 m/S 748 mmHg 79%
    16:00 +1°C° 0 mm 1 m/S 748 mmHg 81%
    17:00 -1°C° 0 mm 1 m/S 747 mmHg 83%
    18:00 -3°C° 0 mm 1 m/S 747 mmHg 84%
    19:00 -6°C° 0 mm 1 m/S 747 mmHg 85%
    20:00 -6°C° 0 mm 1 m/S 747 mmHg 84%
    21:00 -7°C° 0 mm 1 m/S 747 mmHg 84%
    22:00 -7°C° 0 mm 1 m/S 747 mmHg 83%
    23:00 -7°C° 0 mm 1 m/S 747 mmHg 80%

    3 März, Dienstag

    Zeit Temperatur Niederschläge Wind Luftdruck Luftfeuchtigkeit
    00:00 -8°C° 0 mm 1 m/S 747 mmHg 78%
    01:00 -8°C° 0 mm 1 m/S 747 mmHg 76%
    02:00 -8°C° 0 mm 1 m/S 747 mmHg 75%
    03:00 -9°C° 0 mm 1 m/S 747 mmHg 73%
    04:00 -9°C° 0 mm 1 m/S 747 mmHg 72%
    05:00 -9°C° 0 mm 1 m/S 747 mmHg 72%
    06:00 -9°C° 0 mm 1 m/S 747 mmHg 72%
    07:00 -10°C° 0 mm 1 m/S 747 mmHg 72%
    08:00 -9°C° 0 mm 2 m/S 747 mmHg 70%
    09:00 -7°C° 0 mm 2 m/S 747 mmHg 68%
    10:00 -5°C° 0 mm 2 m/S 747 mmHg 66%
    11:00 -3°C° 0 mm 2 m/S 746 mmHg 66%
    12:00 -2°C° 0 mm 2 m/S 746 mmHg 66%
    13:00 -1°C° 0 mm 3 m/S 746 mmHg 66%
    14:00 -1°C° 0 mm 2 m/S 746 mmHg 69%
    15:00 -1°C° 0 mm 2 m/S 746 mmHg 71%
    16:00 -1°C° 0 mm 2 m/S 746 mmHg 74%
    17:00 -4°C° 0 mm 3 m/S 746 mmHg 78%
    18:00 -5°C° 0 mm 3 m/S 746 mmHg 82%
    19:00 -6°C° 0 mm 3 m/S 746 mmHg 86%
    20:00 -7°C° 0 mm 3 m/S 746 mmHg 89%
    21:00 -7°C° 0 mm 3 m/S 746 mmHg 91%
    22:00 -7°C° 0 mm 2 m/S 746 mmHg 94%
    23:00 -6°C° 0 mm 2 m/S 746 mmHg 93%
    Mehr zeigen